Regional Weather Roundup
Issued by NWS

Home | Current Version | Previous Version | Text Only | Print | Product List | Glossary Off
Versions: 1 2 3 4 5 6 7 8 9 10 11 12 13 14 15 16 17 18 19 20 21 22 23 24 25 26 27 28 29 30 31 32 33 34 35 36 37 38 39 40 41 42 43 44 45 46 47 48 49 50

000
ASUS43 KTOP 282259
RWRKS

WEATHER ROUNDUP FOR KANSAS
NATIONAL WEATHER SERVICE GOODLAND KS
500 PM CST SAT FEB 28 2015

NOTE:  "FAIR" INDICATES FEW OR NO CLOUDS BELOW 12,000 FEET WITH NO
SIGNIFICANT WEATHER AND/OR OBSTRUCTIONS TO VISIBILITY.

KSZ001>006-013>018-027>032-041>047-010000-
NORTHWEST KANSAS

CITY           SKY/WX    TMP DP  RH WIND       PRES   REMARKS
GOODLAND       LGT SNOW  19  13  77 S8        30.08S
HAYS           CLOUDY    21   7  53 SE9       30.23F
HILL CITY      CLOUDY    21  13  71 S7        30.22S
RUSSELL        CLOUDY    21  15  78 SE10      30.24F WCI  10
$$

KSZ061>065-074>080-084>089-010000-
SOUTHWEST KANSAS

CITY           SKY/WX    TMP DP  RH WIND       PRES   REMARKS
DODGE CITY     CLOUDY    21  14  74 S10       30.17F WCI  10
ELKHART          N/A     26  17  68 S10         N/A  WCI  16
GARDEN CITY    CLOUDY    20  15  81 S8        30.13F
GREAT BEND     CLOUDY    19  12  73 SE8       30.26S
LIBERAL        CLOUDY    23  16  74 SE9       30.13S
$$

KSZ066>073-081>083-090>101-010000-
SOUTHEAST KANSAS

CITY           SKY/WX    TMP DP  RH WIND       PRES   REMARKS
CHANUTE        LGT SNOW  23  21  92 E6        30.36F FOG
COFFEYVILLE    LGT SNOW  25  22  88 E6        30.37F FOG
HUTCHINSON     CLOUDY    22  15  75 SE7       30.30S
MEDICINE LODGE   N/A     22  17  81 S8        30.27F
NEWTON         CLOUDY    21  12  68 SE5       30.31F
PARSONS        LGT SNOW  25  22  88 E3        30.37F FOG
WICHITA INTL   CLOUDY    23  16  74 S5        30.31S
WICHITA JABRA  CLOUDY    22  17  81 S3        30.31S
WICHITA MCCONL CLOUDY    23  18  80 SE2       30.31S
WINFIELD       CLOUDY    24  21  88 SE3       30.33S
$$

KSZ007>012-019>026-033>040-048>060-102>105-010000-
NORTHEAST KANSAS

CITY           SKY/WX    TMP DP  RH WIND       PRES   REMARKS
CONCORDIA      CLOUDY    21  15  78 S8        30.30F
EMPORIA        LGT SNOW  22  18  85 SE7       30.33F FOG
LAWRENCE       CLOUDY    23  18  81 SE7       30.39F
MANHATTAN      CLOUDY    24  18  77 SE6       30.35F
OLATHE IND     LGT SNOW  22  17  81 E7        30.38F
OLATHE EXE     LGT SNOW  22  18  85 SE6       30.37F FOG
SALINA         CLOUDY    23  15  71 S6        30.33F
TOPEKA BILLARD CLOUDY    24  18  77 SE6       30.38F
TOPEKA FORBES  CLOUDY    25  17  72 SE6       30.36F
$$



USA.gov is the U.S. government's official web portal to all federal, state and local government web resources and services.